Lid_Strength_Index
5 4 4 4 3 3 3 3 2 2 2 2 2 2 2 1 1 1 1 1 2 2 1 1 1 1 1 2 0 0 0 1 1
5 5 4 4 3 3 3 3 3 2 2 2 2 2 1 1 1 1 1 1 1 1 1 1 0 0 1 1 0 0 1 1 1
5 5 4 4 3 3 3 2 2 2 2 2 2 2 1 1 1 1 1 2 1 1 2 1 1 1 0 0 0 0 1 2 1
5 5 4 4 3 3 3 2 2 2 2 2 2 2 2 1 1 1 1 1 1 1 1 1 1 1 1 1 1 0 1 2 1
5 4 4 3 3 3 3 3 3 3 2 2 2 2 2 2 1 1 1 1 1 1 1 1 1 1 1 1 1 1 1 2 1
5 5 5 4 3 3 3 3 3 3 2 2 2 2 2 2 2 2 2 1 1 1 1 1 1 1 1 1 1 1 1 1 1
5 5 5 5 4 4 3 3 3 3 2 2 2 2 2 2 2 2 1 1 1 1 1 1 1 1 1 1 1 1 1 1 1
5 5 5 5 4 4 3 3 3 3 2 2 2 2 2 2 2 1 1 1 1 1 1 1 1 1 1 1 1 1 1 1 1
6 6 5 5 5 4 3 3 3 3 3 2 2 2 3 2 2 2 2 2 1 1 1 1 2 2 2 1 1 3 3 1 1
5 5 5 5 4 4 3 3 3 3 3 2 2 2 2 2 2 2 2 2 2 2 2 1 2 2 2 2 2 5 4 2 1
6 5 4 4 4 4 4 3 2 2 2 2 2 3 2 2 2 2 2 2 2 2 2 2 2 3 3 2 2 6 6 4 3
6 5 6 4 4 3 3 3 2 2 3 3 3 3 3 2 2 2 2 2 2 2 2 2 2 2 2 2 4 8 7 5 3
5 5 4 4 3 3 3 3 3 3 3 3 3 3 3 2 2 2 2 2 2 2 2 2 2 3 3 4 4 7 7 6 3
5 5 5 4 3 3 4 3 3 3 3 3 3 2 2 2 2 2 2 2 2 2 2 3 3 3 3 3 3 5 8 7 2
5 6 4 4 4 4 3 3 3 4 4 3 2 2 2 2 2 2 2 2 2 3 3 3 4 3 3 3 3 5 8 7 6
5 5 5 4 4 4 4 3 3 4 3 3 2 3 3 2 2 2 2 3 3 3 4 4 3 3 3 3 2 2 7 8 7
5 5 5 4 4 4 4 3 3 3 3 2 3 3 3 3 4 4 4 3 3 4 4 3 3 3 3 3 2 5 6 7 7
5 5 4 4 4 4 4 3 3 3 2 2 3 3 4 4 5 8 10 13 9 4 9 5 3 3 2 3 3 4 6 6 4
5 5 4 4 4 4 4 3 3 3 3 3 4 4 4 5 6 7 8 9 10 14 14 14 13 10 5 9 9 10 11 10 8
4 4 4 4 4 4 3 3 3 3 3 3 3 4 3 4 5 5 6 6 7 9 10 13 15 14 11 10 11 12 12 11 10